• In Austria
  • List of Countries
  • For 7 days
  • Water Temperature
  • Satellite Maps
  • Weather Map
  • News
  • Weather Widgets
  • user-avatar
    Login

    Hourly Weather Elzbiecin

    Today, 23 April, Monday

    Time Temperature Precipitation Wind Pressure Humidity
    00:00 +7°C° 0 mm 2 mps 752 mmHg 79%
    01:00 +7°C° 0 mm 1 mps 751 mmHg 82%
    02:00 +6°C° 0 mm 1 mps 751 mmHg 82%
    03:00 +6°C° 0 mm 1 mps 751 mmHg 83%
    04:00 +6°C° 0 mm 1 mps 751 mmHg 83%
    05:00 +8°C° 0 mm 1 mps 751 mmHg 77%
    06:00 +8°C° 0 mm 2 mps 751 mmHg 71%
    07:00 +10°C° 0 mm 2 mps 751 mmHg 66%
    08:00 +13°C° 0 mm 2 mps 750 mmHg 60%
    09:00 +14°C° 0 mm 3 mps 750 mmHg 55%
    10:00 +17°C° 0 mm 3 mps 750 mmHg 50%
    11:00 +17°C° 0 mm 3 mps 749 mmHg 50%
    12:00 +18°C° 0 mm 3 mps 749 mmHg 50%
    13:00 +19°C° 0 mm 4 mps 748 mmHg 49%
    14:00 +19°C° 0 mm 4 mps 748 mmHg 50%
    15:00 +20°C° 0 mm 4 mps 747 mmHg 50%
    16:00 +20°C° 0 mm 4 mps 747 mmHg 51%
    17:00 +19°C° 0.6 mm 3 mps 747 mmHg 59%
    18:00 +17°C° 0.6 mm 3 mps 746 mmHg 68%
    19:00 +16°C° 0.6 mm 2 mps 746 mmHg 77%
    20:00 +14°C° 0.1 mm 3 mps 746 mmHg 82%
    21:00 +13°C° 0.1 mm 3 mps 747 mmHg 86%
    22:00 +13°C° 0.1 mm 3 mps 747 mmHg 90%
    23:00 +12°C° 0 mm 4 mps 747 mmHg 91%

    Tomorrow, 24 April, Tuesday

    Time Temperature Precipitation Wind Pressure Humidity
    00:00 +11°C° 0 mm 4 mps 747 mmHg 91%
    01:00 +10°C° 0 mm 4 mps 748 mmHg 92%
    02:00 +8°C° 0 mm 4 mps 748 mmHg 91%
    03:00 +7°C° 0 mm 4 mps 748 mmHg 90%
    04:00 +7°C° 0 mm 3 mps 749 mmHg 90%
    05:00 +7°C° 0 mm 4 mps 749 mmHg 85%
    06:00 +8°C° 0 mm 5 mps 749 mmHg 80%
    07:00 +9°C° 0 mm 5 mps 750 mmHg 75%
    08:00 +11°C° 0 mm 6 mps 750 mmHg 69%
    09:00 +13°C° 0 mm 6 mps 750 mmHg 63%
    10:00 +14°C° 0 mm 6 mps 750 mmHg 57%
    11:00 +15°C° 0 mm 6 mps 750 mmHg 54%
    12:00 +15°C° 0 mm 6 mps 750 mmHg 52%
    13:00 +16°C° 0 mm 6 mps 749 mmHg 49%
    14:00 +16°C° 0 mm 6 mps 749 mmHg 51%
    15:00 +16°C° 0 mm 5 mps 749 mmHg 52%
    16:00 +16°C° 0 mm 5 mps 749 mmHg 54%
    17:00 +14°C° 0.1 mm 4 mps 748 mmHg 62%
    18:00 +13°C° 0.1 mm 3 mps 748 mmHg 69%
    19:00 +13°C° 0.1 mm 2 mps 748 mmHg 76%
    20:00 +13°C° 0.2 mm 2 mps 748 mmHg 80%
    21:00 +13°C° 0.2 mm 2 mps 748 mmHg 83%
    22:00 +11°C° 0.2 mm 3 mps 748 mmHg 87%
    23:00 +11°C° 0.3 mm 3 mps 748 mmHg 89%

    Day after tomorrow, 25 April, Wednesday

    Time Temperature Precipitation Wind Pressure Humidity
    00:00 +11°C° 0.3 mm 3 mps 748 mmHg 91%
    01:00 +10°C° 0.3 mm 3 mps 748 mmHg 93%
    02:00 +10°C° 0 mm 3 mps 748 mmHg 94%
    03:00 +9°C° 0 mm 3 mps 749 mmHg 95%
    04:00 +8°C° 0 mm 3 mps 749 mmHg 96%
    05:00 +9°C° 0 mm 3 mps 749 mmHg 92%
    06:00 +10°C° 0 mm 3 mps 749 mmHg 88%
    07:00 +11°C° 0 mm 3 mps 749 mmHg 84%
    08:00 +12°C° 0 mm 4 mps 748 mmHg 79%
    09:00 +14°C° 0 mm 5 mps 748 mmHg 74%
    10:00 +15°C° 0 mm 5 mps 747 mmHg 70%
    11:00 +16°C° 0.1 mm 6 mps 747 mmHg 69%
    12:00 +16°C° 0.1 mm 7 mps 746 mmHg 68%
    13:00 +17°C° 0.1 mm 7 mps 745 mmHg 67%
    14:00 +17°C° 0.4 mm 7 mps 745 mmHg 70%
    15:00 +17°C° 0.4 mm 6 mps 744 mmHg 72%
    16:00 +17°C° 0.4 mm 6 mps 744 mmHg 75%
    17:00 +16°C° 0.7 mm 5 mps 744 mmHg 79%
    18:00 +15°C° 0.7 mm 5 mps 744 mmHg 84%
    19:00 +14°C° 0.7 mm 4 mps 744 mmHg 89%
    20:00 +13°C° 0.2 mm 4 mps 744 mmHg 90%
    21:00 +13°C° 0.2 mm 4 mps 744 mmHg 92%
    22:00 +12°C° 0.2 mm 3 mps 745 mmHg 93%
    23:00 +11°C° 0.1 mm 3 mps 745 mmHg 93%

    26 April, Thursday

    Time Temperature Precipitation Wind Pressure Humidity
    00:00 +11°C° 0.1 mm 3 mps 746 mmHg 93%
    01:00 +10°C° 0.1 mm 3 mps 746 mmHg 93%
    02:00 +9°C° 0 mm 3 mps 746 mmHg 94%
    03:00 +8°C° 0 mm 3 mps 747 mmHg 95%
    04:00 +6°C° 0 mm 2 mps 747 mmHg 95%
    05:00 +7°C° 0 mm 2 mps 747 mmHg 91%
    06:00 +8°C° 0 mm 3 mps 748 mmHg 86%
    07:00 +9°C° 0 mm 3 mps 748 mmHg 81%
    08:00 +10°C° 0 mm 3 mps 748 mmHg 73%
    09:00 +12°C° 0 mm 3 mps 749 mmHg 66%
    10:00 +13°C° 0 mm 3 mps 749 mmHg 58%
    11:00 +14°C° 0 mm 4 mps 749 mmHg 54%
    12:00 +15°C° 0 mm 4 mps 748 mmHg 51%
    13:00 +16°C° 0 mm 5 mps 748 mmHg 48%
    14:00 +15°C° 0.1 mm 4 mps 748 mmHg 51%
    15:00 +15°C° 0.1 mm 4 mps 748 mmHg 54%
    16:00 +14°C° 0.1 mm 4 mps 747 mmHg 58%
    17:00 +13°C° 0.3 mm 4 mps 748 mmHg 65%
    18:00 +12°C° 0.3 mm 3 mps 748 mmHg 73%
    19:00 +10°C° 0.3 mm 3 mps 748 mmHg 81%
    20:00 +10°C° 0 mm 3 mps 749 mmHg 83%
    21:00 +9°C° 0 mm 3 mps 749 mmHg 86%
    22:00 +8°C° 0 mm 3 mps 750 mmHg 89%
    23:00 +8°C° 0 mm 3 mps 750 mmHg 90%

    27 April, Friday

    Time Temperature Precipitation Wind Pressure Humidity
    00:00 +7°C° 0 mm 3 mps 750 mmHg 91%
    01:00 +5°C° 0 mm 3 mps 750 mmHg 92%
    02:00 +5°C° 0 mm 3 mps 750 mmHg 93%
    03:00 +4°C° 0 mm 3 mps 751 mmHg 93%
    04:00 +5°C° 0 mm 2 mps 751 mmHg 94%
    05:00 +5°C° 0 mm 3 mps 751 mmHg 89%
    06:00 +7°C° 0 mm 3 mps 751 mmHg 84%
    07:00 +8°C° 0 mm 4 mps 752 mmHg 79%
    08:00 +10°C° 0.1 mm 4 mps 752 mmHg 72%
    09:00 +10°C° 0.1 mm 5 mps 752 mmHg 66%
    10:00 +12°C° 0.1 mm 5 mps 752 mmHg 59%
    11:00 +13°C° 0.1 mm 5 mps 752 mmHg 55%
    12:00 +14°C° 0.1 mm 5 mps 752 mmHg 50%
    13:00 +14°C° 0.1 mm 5 mps 752 mmHg 46%
    14:00 +14°C° 0 mm 5 mps 752 mmHg 47%
    15:00 +14°C° 0 mm 5 mps 752 mmHg 47%
    16:00 +14°C° 0 mm 4 mps 752 mmHg 47%
    17:00 +13°C° 0 mm 3 mps 752 mmHg 54%
    18:00 +12°C° 0 mm 2 mps 752 mmHg 60%
    19:00 +10°C° 0 mm 1 mps 753 mmHg 67%
    20:00 +10°C° 0 mm 1 mps 753 mmHg 69%
    21:00 +9°C° 0 mm 1 mps 753 mmHg 71%
    22:00 +8°C° 0 mm 1 mps 753 mmHg 73%
    23:00 +8°C° 0 mm 1 mps 753 mmHg 74%

    28 April, Saturday

    Time Temperature Precipitation Wind Pressure Humidity
    00:00 +8°C° 0 mm 1 mps 753 mmHg 75%
    01:00 +7°C° 0 mm 1 mps 754 mmHg 76%
    02:00 +7°C° 0 mm 1 mps 754 mmHg 77%
    03:00 +7°C° 0 mm 1 mps 753 mmHg 78%
    04:00 +5°C° 0 mm 2 mps 753 mmHg 79%
    05:00 +7°C° 0 mm 2 mps 753 mmHg 74%
    06:00 +9°C° 0 mm 2 mps 754 mmHg 70%
    07:00 +12°C° 0 mm 2 mps 754 mmHg 65%
    08:00 +13°C° 0 mm 3 mps 753 mmHg 59%
    09:00 +14°C° 0 mm 3 mps 753 mmHg 54%
    10:00 +17°C° 0 mm 4 mps 753 mmHg 48%
    11:00 +18°C° 0 mm 4 mps 753 mmHg 47%
    12:00 +19°C° 0 mm 4 mps 752 mmHg 46%
    13:00 +20°C° 0 mm 4 mps 752 mmHg 44%
    14:00 +20°C° 0 mm 4 mps 751 mmHg 46%
    15:00 +20°C° 0 mm 4 mps 751 mmHg 48%
    16:00 +20°C° 0 mm 4 mps 751 mmHg 49%
    17:00 +18°C° 0 mm 4 mps 750 mmHg 56%
    18:00 +17°C° 0 mm 4 mps 750 mmHg 62%
    19:00 +14°C° 0 mm 4 mps 750 mmHg 68%
    20:00 +14°C° 0 mm 4 mps 750 mmHg 69%
    21:00 +13°C° 0 mm 4 mps 750 mmHg 70%
    22:00 +13°C° 0 mm 4 mps 749 mmHg 71%
    23:00 +12°C° 0.1 mm 4 mps 749 mmHg 76%
    Show more